[[{"header":{"parameterUnit":"m.s-1","parameterCategory":1,"la1":30.2992,"la2":30.254,"lo1":-89.0895,"lo2":-89.0443,"dy":0.0025,"dx":0.0025,"nx":19,"ny":19,"refTime":"2026-03-16T09:00:00:Z","depth":0,"parameterNumber":2,"parameterNumberName":"U-component_of_WINDS"},"data":[0,0,0,0.9998,0.9997,0.9991,0.9991,0.9976,0.9976,0,0,0,0,0,0,0,0,0,0,0,0.9996,0.9995,0.9998,0.9997,0.9991,0.9991,0.9976,0.9976,0,0,0,0,0,0,0,0,0,0,0,0.9996,0.9995,0.9995,0.9997,0.9991,0.9991,0.9976,0.9983,0,0,0,0,0,0,0,0,0,0,0.9991,0.9985,0.9996,0.9995,0.9997,0.9991,0.9991,0.9984,0.9983,0.9976,0,0.997,0,0.9973,0.9975,0.9975,0,0,0,1.0,0.9986,0.9988,0.9995,0.9997,0.9991,0.9995,0.9983,0.9982,0.9975,0.997,0.9969,0.9973,0.9975,0.9975,0.993,0.993,0,0,1.0,0.9992,0.9988,0.9987,0.9988,0.9995,0.9995,0.9983,0.9976,0.997,0.9969,0.9972,0.9975,0.9974,0.993,0.993,0,0,0,1.0,0.9992,0.9995,0.9987,0.9987,0.9995,0.9994,0.9977,0.9978,0.9969,0.9972,0.9974,0.9974,0.9931,0.993,0.9906,0,0,0,1.0,0.9992,0.9995,0.9989,0.9987,0.9982,0.9988,0.9979,0.9978,0.9972,0.9974,0.9974,0.9931,0.9931,0.9907,0.9895,0,0,0,0.9997,0.9991,0.9989,0.9989,0.9986,0.9982,0.9983,0.9979,0.998,0.9975,0.9974,0.9931,0.9931,0.9909,0.9897,0.9881,0,0,0,0.9992,0.9967,0.9989,0.9963,0.9986,0.9968,0.9983,0.997,0.9962,0.9974,0.9931,0.993,0.9909,0.9899,0.9882,0.9865,0.9857,0,0,0.9955,0.9962,0.9947,0.9967,0.9943,0.9969,0.9941,0.9942,0.9949,0.9936,0.9935,0.9907,0.9897,0.9881,0.982,0.9813,0,0,0,0.9933,0.9922,0.9918,0.9911,0.9913,0.9913,0.9919,0.992,0.991,0.9941,0.9898,0.9892,0.9883,0.9875,0.987,0.9862,0.9927,0.9927,0.9927,0.9868,0.988,0.9857,0.9868,0.9862,0.987,0.9866,0.9868,0.988,0.987,0.9866,0.9827,0.9817,0.9814,0.9806,0.9859,0.9859,0.9859,0.9859,0.9815,0.9801,0.9822,0.9806,0.9819,0.9805,0.9813,0.9823,0.9812,0.9831,0.9823,0.9841,0.9806,0.98,0.9857,0.9857,0.9857,0.9858,0.9858,0.9772,0.9768,0.9771,0.9765,0.9758,0.9771,0.9761,0.9773,0.9784,0.9777,0.9774,0.9774,0.9775,0.9775,0.9775,0.9775,0.9775,0.9775,0.9775,0.9726,0.973,0.9721,0.9722,0.9721,0.972,0.9731,0.973,0.9731,0.9741,0.9741,0.9754,0.9802,0.9813,0.9773,0.9773,0.9773,0.9773,0.9774,0.9665,0.9682,0.9666,0.9665,0.9669,0.9663,0.968,0.9677,0.9678,0.9673,0.9689,0.9723,0.9729,0.9734,0.9743,0.9687,0.9687,0.9687,0.9687,0.9628,0.9634,0.9622,0.962,0.9619,0.9634,0.9617,0.9626,0.9637,0.9638,0.9649,0.9663,0.9667,0.9671,0.9677,0.9685,0.9616,0.9616,0.9616,0.9591,0.9598,0.958,0.9593,0.9598,0.9602,0.9586,0.9583,0.9599,0.9613,0.964,0.9643,0.9665,0.9672,0.9683,0.9692,0.9708,0,0]},{"header":{"parameterUnit":"m.s-1","parameterCategory":1,"la1":30.2992,"la2":30.254,"lo1":-89.0895,"lo2":-89.0443,"dy":0.0025,"dx":0.0025,"nx":19,"ny":19,"refTime":"2026-03-16T09:00:00:Z","depth":0,"parameterNumber":3,"parameterNumberName":"V-component_of_WINDS"},"data":[0,0,0,-7.3263,-7.3269,-7.3537,-7.3538,-7.3893,-7.3896,0,0,0,0,0,0,0,0,0,0,0,-7.3196,-7.3199,-7.3263,-7.327,-7.3537,-7.3538,-7.3892,-7.3896,0,0,0,0,0,0,0,0,0,0,0,-7.3194,-7.3198,-7.3202,-7.3271,-7.3537,-7.3538,-7.3892,-7.3684,0,0,0,0,0,0,0,0,0,0,-7.3421,-7.3373,-7.3197,-7.3202,-7.3272,-7.3537,-7.3538,-7.3674,-7.3697,-7.3779,0,-7.3858,0,-7.3883,-7.3921,-7.3923,0,0,0,-7.326,-7.3353,-7.3415,-7.3202,-7.3275,-7.3536,-7.3414,-7.3687,-7.3713,-7.3809,-7.3863,-7.3876,-7.3889,-7.3924,-7.3926,-7.4438,-7.4441,0,0,-7.3245,-7.325,-7.3397,-7.3433,-7.3397,-7.3405,-7.3422,-7.3702,-7.3759,-7.3864,-7.3884,-7.3895,-7.3926,-7.3929,-7.4435,-7.4439,0,0,0,-7.3209,-7.324,-7.3294,-7.3419,-7.3466,-7.3413,-7.3433,-7.3747,-7.3764,-7.3887,-7.3899,-7.3928,-7.3933,-7.4432,-7.4437,-7.4584,0,0,0,-7.32,-7.3219,-7.3288,-7.3294,-7.3461,-7.3611,-7.3471,-7.3745,-7.3777,-7.3897,-7.3929,-7.3937,-7.4429,-7.4434,-7.4573,-7.4652,0,0,0,-7.3174,-7.3216,-7.3259,-7.3294,-7.3409,-7.3606,-7.364,-7.3752,-7.3785,-7.3923,-7.3938,-7.4427,-7.4433,-7.4564,-7.4637,-7.4788,0,0,0,-7.3147,-7.3385,-7.3262,-7.3531,-7.3407,-7.3697,-7.3638,-7.3852,-7.3989,-7.393,-7.4429,-7.4436,-7.4561,-7.4627,-7.4778,-7.4917,-7.4976,0,0,-7.345,-7.3422,-7.358,-7.3477,-7.3791,-7.3655,-7.3989,-7.4108,-7.4114,-7.4328,-7.4341,-7.4577,-7.4636,-7.4786,-7.5304,-7.535,0,0,0,-7.3678,-7.3792,-7.3874,-7.4006,-7.4104,-7.4193,-7.4261,-7.4304,-7.4486,-7.4227,-7.4673,-7.4707,-7.4795,-7.4861,-7.4901,-7.4976,-7.4467,-7.4466,-7.4466,-7.4113,-7.4111,-7.4372,-7.4403,-7.4531,-7.4598,-7.47,-7.4769,-7.4728,-7.4833,-7.4897,-7.5212,-7.5289,-7.5319,-7.5397,-7.497,-7.4971,-7.4972,-7.4972,-7.4556,-7.4716,-7.4657,-7.489,-7.4884,-7.5078,-7.515,-7.5114,-7.5291,-7.5164,-7.5241,-7.5102,-7.5371,-7.5438,-7.4983,-7.4981,-7.498,-7.4979,-7.4978,-7.4841,-7.4917,-7.4968,-7.5157,-7.5303,-7.5323,-7.5496,-7.5484,-7.5474,-7.5551,-7.5615,-7.5613,-7.5608,-7.5582,-7.5584,-7.5585,-7.5586,-7.5586,-7.5587,-7.5116,-7.5169,-7.5318,-7.5442,-7.5524,-7.563,-7.5699,-7.5778,-7.5862,-7.5839,-7.584,-7.5787,-7.5398,-7.53,-7.5604,-7.5601,-7.5599,-7.5597,-7.5596,-7.5565,-7.5462,-7.5693,-7.5776,-7.5918,-7.6062,-7.6045,-7.6207,-7.627,-7.6355,-7.6286,-7.6001,-7.597,-7.5938,-7.5857,-7.6287,-7.6287,-7.6287,-7.6287,-7.5805,-7.5789,-7.6022,-7.6154,-7.6282,-7.629,-7.6547,-7.6601,-7.664,-7.6678,-7.6614,-7.6505,-7.6473,-7.6461,-7.6418,-7.6342,-7.6886,-7.6886,-7.6887,-7.6081,-7.6076,-7.63,-7.6339,-7.645,-7.6543,-7.6784,-7.6934,-7.6956,-7.6911,-7.6707,-7.6682,-7.6506,-7.6449,-7.6399,-7.6333,-7.6193,0,0]}]]